Find Starlink 32862

NORAD ID: 62864 Int'l Des: 2025-022 Owner: SPXS Country: US Constellation: starlink operational
LEOCIRCULAR

Live Position

Loading 3D Globe...

About Starlink 32862

Description loading...

Upcoming Passes

Passes for default location (London). Set your location on the main map for personalized predictions.

Altitude History

Loading altitude history...

Two-Line Element Set

1 62864U 25022L 26106.28963253 .00004317 00000-0 15781-3 0 9990
2 62864 53.1594 315.1939 0001697 79.8799 280.2393 15.30199221 67652
Epoch: Apr 16, 2026 • Age: 29 hours

Current Status

Altitude 482.2 km
Velocity 7.62 km/s
Sub-Earth Point -22.52°S, 120.81°E
Launch Date Feb 2, 2025
Age 1.1 years
Type internet

Technical Details

Classification Payload
Mass 730.00 kg
Dry Mass 700.00 kg
Total Mass 730.00 kg
Length 0.30 m
Diameter 4.10 m
Span 29.00 m
Shape Box + pan
Manufacturer SPXS
Bus Type Starlink V2M
Phase Status In Orbit
Owner/State SPXS/US

Most Searched